AFR217 VABB-LFPG

Flight info

Callsign AFR217
Flight time N/A
Altitude 36000
Route ANOLI2A ISRIS G208 APANO G451 AAE Z8 VIKIT P628 RK G202 HILAL/N0496F380 G202 ZB L750 RANAH B801 NINOP B475 DOLOS B449 ETRAP B447 KRS B143 TUNEK A909 RODAR M11 ERLEV/N0492F400 L850 ADEKI N644 TETRO M10 SARPI UM10 OLUPO UL851 KARDE UN644 SIN UW90 INB UL746 ODERO DCT OPT DCT SOKRU DCT ABETI DCT TAGAS DCT RENKA L610 STAUB/N0464F240 L610 MAMOR DCT ASPAT DCT VIBOM DCT BETEX DCT IDOSA DCT TOLVU/N0492F410 DCT RAPOR DCT VEDUS
Aircraft A359/H-SDE2E3GHIJ3J4J5LM1ORWXY/LB1D1

Departure

Time 2026-05-06 06:19
Airport Chhatrapati Shivaji Maharaj International Airport (VABB)

Arrival

Time N/A
Airport Charles de Gaulle International Airport (LFPG)
Time Latitude Longitude Altitude Speed Heading
2026-05-06 05:19 19.09340 72.87268 54 ft 0 kts 307°
2026-05-06 06:00 19.09339 72.87268 55 ft 2 kts 307°
2026-05-06 06:00 19.09330 72.87282 47 ft 2 kts 303°
2026-05-06 06:01 19.09321 72.87297 47 ft 2 kts 297°
2026-05-06 06:01 19.09315 72.87313 47 ft 2 kts 288°
2026-05-06 06:01 19.09311 72.87330 47 ft 2 kts 271°
2026-05-06 06:01 19.09314 72.87348 47 ft 2 kts 240°
2026-05-06 06:02 19.09325 72.87360 51 ft 2 kts 204°
2026-05-06 06:02 19.09334 72.87364 47 ft 1 kts 186°
2026-05-06 06:07 19.09332 72.87364 55 ft 1 kts 183°
2026-05-06 06:07 19.09312 72.87364 49 ft 5 kts 180°
2026-05-06 06:07 19.09273 72.87359 49 ft 3 kts 207°
2026-05-06 06:08 19.09255 72.87338 50 ft 4 kts 232°
2026-05-06 06:08 19.09241 72.87309 48 ft 5 kts 242°
2026-05-06 06:08 19.09221 72.87280 54 ft 6 kts 227°
2026-05-06 06:08 19.09218 72.87278 54 ft 0 kts 225°
2026-05-06 06:09 19.09215 72.87275 54 ft 3 kts 225°
2026-05-06 06:09 19.09199 72.87264 54 ft 2 kts 202°
2026-05-06 06:10 19.09185 72.87262 48 ft 2 kts 184°
2026-05-06 06:10 19.09177 72.87262 50 ft 2 kts 179°
2026-05-06 06:10 19.09161 72.87263 49 ft 3 kts 179°
2026-05-06 06:10 19.09132 72.87263 49 ft 5 kts 179°
2026-05-06 06:11 19.09091 72.87263 49 ft 6 kts 180°
2026-05-06 06:11 19.09060 72.87278 51 ft 4 kts 132°
2026-05-06 06:11 19.09052 72.87306 51 ft 4 kts 99°
2026-05-06 06:11 19.09051 72.87343 51 ft 6 kts 90°
2026-05-06 06:12 19.09052 72.87390 51 ft 7 kts 89°
2026-05-06 06:12 19.09052 72.87447 50 ft 8 kts 90°
2026-05-06 06:12 19.09052 72.87514 50 ft 10 kts 89°
2026-05-06 06:12 19.09053 72.87590 50 ft 11 kts 90°
2026-05-06 06:13 19.09053 72.87676 50 ft 12 kts 89°
2026-05-06 06:13 19.09055 72.87769 49 ft 13 kts 89°
2026-05-06 06:13 19.09058 72.87869 49 ft 14 kts 89°
2026-05-06 06:13 19.09060 72.87975 55 ft 14 kts 89°
2026-05-06 06:14 19.09051 72.88041 50 ft 7 kts 125°
2026-05-06 06:14 19.09021 72.88051 51 ft 3 kts 175°
2026-05-06 06:14 19.09010 72.88051 51 ft 0 kts 181°
2026-05-06 06:16 19.08999 72.88050 53 ft 4 kts 181°
2026-05-06 06:16 19.08951 72.88049 51 ft 9 kts 181°
2026-05-06 06:16 19.08899 72.88047 51 ft 6 kts 187°
2026-05-06 06:16 19.08889 72.88032 53 ft 1 kts 246°
2026-05-06 06:17 19.08889 72.88031 53 ft 0 kts 249°
2026-05-06 06:17 19.08887 72.88009 49 ft 6 kts 269°
2026-05-06 06:17 19.08887 72.87972 53 ft 0 kts 269°
2026-05-06 06:18 19.08887 72.87956 53 ft 12 kts 269°
2026-05-06 06:18 19.08883 72.87642 47 ft 74 kts 269°
2026-05-06 06:19 19.08875 72.86892 54 ft 128 kts 269°
2026-05-06 06:19 19.08859 72.85787 207 ft 158 kts 270°
2026-05-06 06:19 19.08845 72.84672 870 ft 150 kts 270°
2026-05-06 06:19 19.08839 72.83493 1138 ft 170 kts 271°
2026-05-06 06:20 19.08830 72.82205 1287 ft 184 kts 270°
2026-05-06 06:20 19.08813 72.80798 1451 ft 199 kts 270°
2026-05-06 06:20 19.08788 72.79275 1658 ft 214 kts 270°
2026-05-06 06:20 19.08783 72.77679 1969 ft 224 kts 274°
2026-05-06 06:21 19.09261 72.76072 2115 ft 241 kts 307°
2026-05-06 06:21 19.10615 72.75005 2374 ft 251 kts 343°
2026-05-06 06:21 19.12319 72.74797 2851 ft 253 kts
2026-05-06 06:21 19.14086 72.74757 3404 ft 254 kts 359°
2026-05-06 06:22 19.15866 72.74689 3883 ft 258 kts 359°
2026-05-06 06:22 19.17677 72.74604 4369 ft 262 kts 359°
2026-05-06 06:22 19.19486 72.74512 4825 ft 265 kts 359°
2026-05-06 06:22 19.21326 72.74415 5316 ft 267 kts 359°
2026-05-06 06:23 19.23201 72.74314 5784 ft 270 kts 359°
2026-05-06 06:23 19.25091 72.74210 6268 ft 273 kts 359°
2026-05-06 06:23 19.27001 72.74105 6654 ft 279 kts 358°
2026-05-06 06:23 19.28952 72.73998 7058 ft 282 kts 358°
2026-05-06 06:24 19.30913 72.74045 7532 ft 283 kts
2026-05-06 06:24 19.32872 72.74328 7966 ft 287 kts 10°
2026-05-06 06:24 19.34865 72.74647 8380 ft 292 kts
2026-05-06 06:24 19.36862 72.74961 8808 ft 296 kts
2026-05-06 06:25 19.38911 72.75279 9281 ft 300 kts
2026-05-06 06:25 19.40988 72.75599 9760 ft 303 kts
2026-05-06 06:25 19.43816 72.76035 10181 ft 314 kts
2026-05-06 06:26 19.46113 72.76388 10416 ft 326 kts
2026-05-06 06:26 19.48370 72.76734 10631 ft 337 kts
2026-05-06 06:26 19.50728 72.77096 10844 ft 348 kts
2026-05-06 06:26 19.53160 72.77470 11066 ft 358 kts
2026-05-06 06:27 19.55647 72.77853 11272 ft 367 kts
2026-05-06 06:27 19.58202 72.78246 11477 ft 376 kts
2026-05-06 06:27 19.60823 72.78649 11682 ft 384 kts
2026-05-06 06:27 19.63487 72.79059 11963 ft 389 kts
2026-05-06 06:28 19.64653 72.79239 12130 ft 389 kts
2026-05-06 06:28 19.65808 72.79417 12318 ft 389 kts
2026-05-06 06:28 19.68453 72.79824 12733 ft 390 kts
2026-05-06 06:28 19.69035 72.79914 12819 ft 390 kts
2026-05-06 06:29 19.71270 72.80259 13157 ft 391 kts
2026-05-06 06:29 19.73957 72.80673 13556 ft 392 kts
2026-05-06 06:29 19.76652 72.81089 13928 ft 392 kts
2026-05-06 06:29 19.79360 72.81506 14233 ft 395 kts
2026-05-06 06:30 19.82098 72.81928 14543 ft 396 kts
2026-05-06 06:30 19.84821 72.82349 14872 ft 398 kts
2026-05-06 06:30 19.87578 72.82775 15216 ft 400 kts
2026-05-06 06:30 19.90296 72.83195 15512 ft 402 kts
2026-05-06 06:31 19.93070 72.83624 15847 ft 403 kts
2026-05-06 06:31 19.95847 72.84054 16168 ft 405 kts
2026-05-06 06:31 19.98651 72.84487 16489 ft 407 kts
2026-05-06 06:31 20.01445 72.84920 16794 ft 409 kts
2026-05-06 06:32 20.04269 72.85357 17114 ft 410 kts
2026-05-06 06:32 20.07099 72.85795 17429 ft 412 kts
2026-05-06 06:32 20.09943 72.86231 17729 ft 413 kts
2026-05-06 06:32 20.12804 72.86602 18028 ft 415 kts
2026-05-06 06:33 20.15668 72.86949 18313 ft 416 kts
2026-05-06 06:33 20.18518 72.87301 18554 ft 418 kts
2026-05-06 06:33 20.21415 72.87665 18802 ft 419 kts
2026-05-06 06:33 20.24313 72.88031 19061 ft 420 kts
2026-05-06 06:34 20.27211 72.88399 19296 ft 422 kts
2026-05-06 06:34 20.30146 72.88773 19540 ft 423 kts
2026-05-06 06:34 20.33059 72.89145 19794 ft 424 kts
2026-05-06 06:34 20.35999 72.89521 20037 ft 425 kts
2026-05-06 06:35 20.38907 72.89893 20256 ft 427 kts
2026-05-06 06:35 20.41850 72.90270 20486 ft 428 kts
2026-05-06 06:35 20.44805 72.90649 20726 ft 429 kts
2026-05-06 06:35 20.47799 72.91032 20953 ft 431 kts
2026-05-06 06:36 20.50766 72.91413 21174 ft 432 kts
2026-05-06 06:36 20.53758 72.91797 21397 ft 433 kts
2026-05-06 06:36 20.56751 72.92181 21619 ft 434 kts
2026-05-06 06:36 20.59719 72.92562 21839 ft 435 kts
2026-05-06 06:37 20.62730 72.92948 22052 ft 436 kts
2026-05-06 06:37 20.65748 72.93336 22267 ft 438 kts
2026-05-06 06:37 20.68773 72.93725 22483 ft 439 kts
2026-05-06 06:37 20.71809 72.94115 22689 ft 440 kts
2026-05-06 06:38 20.74856 72.94507 22893 ft 441 kts
2026-05-06 06:38 20.77906 72.94880 23093 ft 442 kts
2026-05-06 06:38 20.80964 72.95077 23291 ft 442 kts 359°
2026-05-06 06:38 20.84046 72.95148 23482 ft 442 kts 358°
2026-05-06 06:39 20.87079 72.95182 23626 ft 443 kts 358°
2026-05-06 06:39 20.90179 72.95226 23784 ft 445 kts 358°
2026-05-06 06:39 20.93275 72.95292 23939 ft 446 kts 358°
2026-05-06 06:39 20.96386 72.95382 24098 ft 447 kts 359°
2026-05-06 06:40 20.99492 72.95487 24264 ft 448 kts 359°
2026-05-06 06:40 21.02614 72.95601 24418 ft 449 kts 359°
2026-05-06 06:40 21.05742 72.95719 24578 ft 450 kts 359°
2026-05-06 06:40 21.08885 72.95838 24747 ft 451 kts 359°
2026-05-06 06:41 21.11981 72.95955 24897 ft 452 kts 359°
2026-05-06 06:41 21.15170 72.96074 25063 ft 453 kts 359°
2026-05-06 06:41 21.18267 72.96188 25208 ft 454 kts 359°
2026-05-06 06:41 21.21438 72.96320 25362 ft 455 kts 359°
2026-05-06 06:42 21.24601 72.96480 25518 ft 456 kts 359°
2026-05-06 06:42 21.27772 72.96653 25685 ft 457 kts 359°
2026-05-06 06:42 21.30948 72.96829 25836 ft 457 kts 359°
2026-05-06 06:42 21.34115 72.97003 25976 ft 458 kts 359°
2026-05-06 06:43 21.37315 72.97174 26116 ft 459 kts 359°
2026-05-06 06:43 21.40467 72.97341 26262 ft 460 kts 359°
2026-05-06 06:43 21.43659 72.97509 26421 ft 461 kts 359°
2026-05-06 06:43 21.46874 72.97676 26555 ft 462 kts 359°
2026-05-06 06:44 21.50089 72.97844 26700 ft 463 kts 359°
2026-05-06 06:44 21.53311 72.98012 26843 ft 464 kts 359°
2026-05-06 06:44 21.56532 72.98118 26983 ft 463 kts 355°
2026-05-06 06:44 21.59725 72.97842 27122 ft 460 kts 348°
2026-05-06 06:45 21.62875 72.97236 27271 ft 460 kts 346°
2026-05-06 06:45 21.65965 72.96551 27429 ft 460 kts 345°
2026-05-06 06:45 21.69092 72.95813 27547 ft 461 kts 344°
2026-05-06 06:45 21.72220 72.95058 27695 ft 461 kts 344°
2026-05-06 06:46 21.75352 72.94299 27830 ft 462 kts 344°
2026-05-06 06:46 21.78498 72.93541 27965 ft 463 kts 344°
2026-05-06 06:46 21.81641 72.92790 28106 ft 463 kts 344°
2026-05-06 06:46 21.84795 72.92039 28245 ft 464 kts 344°
2026-05-06 06:47 21.87947 72.91292 28378 ft 465 kts 344°
2026-05-06 06:47 21.91109 72.90543 28510 ft 465 kts 344°
2026-05-06 06:47 21.94233 72.89803 28632 ft 466 kts 344°
2026-05-06 06:47 21.97399 72.89053 28766 ft 466 kts 344°
2026-05-06 06:48 22.00567 72.88302 28878 ft 467 kts 344°
2026-05-06 06:48 22.03750 72.87547 28985 ft 468 kts 344°
2026-05-06 06:48 22.06921 72.86794 29122 ft 468 kts 344°
2026-05-06 06:48 22.10112 72.86036 29228 ft 469 kts 344°
2026-05-06 06:49 22.13291 72.85280 29340 ft 469 kts 344°
2026-05-06 06:49 22.16488 72.84520 29455 ft 470 kts 344°
2026-05-06 06:49 22.19639 72.83770 29577 ft 470 kts 344°
2026-05-06 06:49 22.22821 72.83013 29679 ft 470 kts 344°
2026-05-06 06:50 22.26019 72.82251 29783 ft 471 kts 344°
2026-05-06 06:50 22.29228 72.81487 29893 ft 471 kts 344°
2026-05-06 06:50 22.32428 72.80724 29988 ft 472 kts 344°
2026-05-06 06:51 22.38845 72.79194 30209 ft 472 kts 344°
2026-05-06 06:51 22.42046 72.78430 30320 ft 472 kts 344°
2026-05-06 06:51 22.45253 72.77664 30446 ft 472 kts 344°
2026-05-06 06:51 22.48416 72.76909 30587 ft 471 kts 344°
2026-05-06 06:52 22.51608 72.76146 30707 ft 471 kts 344°
2026-05-06 06:52 22.54814 72.75380 30856 ft 471 kts 344°
2026-05-06 06:52 22.58010 72.74615 30994 ft 471 kts 343°
2026-05-06 06:52 22.61209 72.73850 31144 ft 471 kts 343°
2026-05-06 06:53 22.64414 72.73082 31293 ft 470 kts 343°
2026-05-06 06:53 22.67602 72.72318 31448 ft 470 kts 343°
2026-05-06 06:53 22.70794 72.71553 31595 ft 470 kts 343°
2026-05-06 06:53 22.73939 72.70799 31728 ft 470 kts 343°
2026-05-06 06:54 22.77123 72.70034 31915 ft 471 kts 343°
2026-05-06 06:54 22.80336 72.69263 32210 ft 470 kts 343°
2026-05-06 06:54 22.83524 72.68498 32492 ft 470 kts 343°
2026-05-06 06:54 22.86718 72.67731 32753 ft 470 kts 343°
2026-05-06 06:55 22.89898 72.66966 33023 ft 470 kts 343°
2026-05-06 06:55 22.93098 72.66197 33281 ft 470 kts 343°
2026-05-06 06:55 22.96288 72.65429 33547 ft 470 kts 343°
2026-05-06 06:55 22.99433 72.64672 33806 ft 469 kts 343°
2026-05-06 06:56 23.02610 72.63907 34028 ft 469 kts 343°
2026-05-06 06:56 23.05813 72.63135 34184 ft 469 kts 343°
2026-05-06 06:56 23.08997 72.62374 34330 ft 469 kts 343°
2026-05-06 06:56 23.12180 72.61654 34500 ft 469 kts 344°
2026-05-06 06:57 23.15382 72.60957 34654 ft 469 kts 344°
2026-05-06 06:57 23.18583 72.60268 34823 ft 468 kts 344°
2026-05-06 06:57 23.21778 72.59578 34992 ft 468 kts 344°
2026-05-06 06:57 23.24921 72.58894 35148 ft 468 kts 344°
2026-05-06 06:58 23.28114 72.58194 35307 ft 467 kts 343°
2026-05-06 06:58 23.31307 72.57491 35480 ft 467 kts 343°
2026-05-06 06:58 23.34490 72.56787 35645 ft 467 kts 343°
2026-05-06 06:58 23.37676 72.56081 35804 ft 467 kts 343°
2026-05-06 06:59 23.40866 72.55374 35867 ft 470 kts 343°
2026-05-06 06:59 23.43920 72.54695 35873 ft 473 kts 343°
2026-05-06 07:00 23.47869 72.53819 35866 ft 473 kts 343°
2026-05-06 07:00 23.54272 72.52402 35874 ft 471 kts 343°
2026-05-06 07:01 23.60690 72.50979 35873 ft 470 kts 343°
2026-05-06 07:01 23.67107 72.49554 35881 ft 470 kts 343°
2026-05-06 07:02 23.73508 72.48130 35868 ft 469 kts 343°
2026-05-06 07:02 23.79850 72.46718 35878 ft 469 kts 343°
2026-05-06 07:03 23.86244 72.45293 35870 ft 468 kts 343°
2026-05-06 07:03 23.92613 72.43872 35876 ft 467 kts 343°
2026-05-06 07:04 23.98970 72.42452 35876 ft 467 kts 343°
2026-05-06 07:04 24.05339 72.41036 35877 ft 466 kts 343°
2026-05-06 07:05 24.11649 72.39642 35880 ft 466 kts 343°
2026-05-06 07:05 24.18010 72.38234 35877 ft 465 kts 343°